Location: Kirchberg
(47.4114°N, 9.0398°E)
Time: 21:21:38
(UTC+00:00)

BREEZE-M DEB (TANK) - Pass Details

Date: 03 March 2021
Orbit: 308 x 15403 km, 49.5° (Epoch: 14 April)

Event Time Altitude Azimuth Distance (km) Brightness Sun altitude
Rises 19:47:48 0° 285° (WNW) 2,219 6.7 -26.7°
Reaches altitude 10° 19:49:08 10° 287° (WNW) 1,565 5.6 -26.9°
Enters shadow 19:51:26 60° 302° (WNW) 728 3.0 -27.3°
